Location: Dötzum
(52.0808°N, 9.8063°E)
Time: 05:30:34
(UTC+00:00)

Cosmos 1980 - Pass Details

Date: 27 May 2022
Orbit: 840 x 846 km, 71.0° (Epoch: 24 June)

Event Time Altitude Azimuth Distance (km) Brightness Sun altitude
Exits shadow 00:06:02 25° 185° (S) 1,637 4.6 -15.9°
Maximum altitude 00:09:17 61° 114° (ESE) 956 3.9 -15.8°
Drops below altitude 10° 00:14:50 10° 36° (NE) 2,468 7.2 -15.6°
Sets 00:17:19 0° 33° (NNE) 3,407 8.3 -15.5°
